Location: Kerguer�zec
(48.4509°N, 4.7600°W)
Time: 22:53:34
(UTC+00:00)

Daily predictions for brighter satellites

Satellite Brightness Start Highest point End
(mag) Time Altitude Azimuth Time Altitude Azimuth Time Altitude Azimuth
USA 306 3.6 16:55:05 10° WNW 16:59:06 39° N 17:03:07 10° ENE
Cosmos 1464 Rocket 4.1 16:54:51 10° S 17:01:15 87° E 17:07:40 10° N
Cosmos 1898 Rocket 3.5 16:56:04 10° NNW 17:01:20 65° ENE 17:06:30 10° SSE
Cosmos 2278 4.5 16:56:33 10° NNW 17:01:36 31° NE 17:06:36 10° ESE
USA 276 4.3 16:59:03 10° W 17:01:47 28° SSW 17:04:29 10° SSE
Cosmos 1602 4.4 16:59:42 10° N 17:03:15 34° ENE 17:06:48 10° SE
Sich 1 3.8 16:59:33 10° N 17:03:20 29° ENE 17:07:08 10° SE
ADEOS 4.0 16:58:47 10° S 17:04:00 71° WSW 17:09:15 10° NNW
Cosmos 2221 2.6 16:59:51 10° S 17:04:08 85° W 17:08:28 10° N
Nadezhda 4 Rocket 4.0 16:58:57 10° N 17:05:20 81° E 17:11:40 10° SSE
Cosmos 2084 4.0 17:01:06 10° NW 17:05:23 67° SW 17:09:48 10° SSE
Cosmos 1939 Rocket 3.3 17:01:32 10° SE 17:05:25 43° ENE 17:09:17 10° N
ARGOS 4.4 17:03:48 10° ESE 17:07:37 20° ENE 17:11:25 10° NNE
Cosmos 1805 Rocket 3.9 17:03:58 10° N 17:08:06 41° ENE 17:12:11 10° SE
NOAA 11 4.4 17:02:57 10° S 17:08:23 79° WSW 17:13:51 10° NNW
Cosmos 1833 Rocket 2.9 17:05:24 10° S 17:10:52 57° ESE 17:16:25 10° NE
Cosmos 1842 Rocket 3.8 17:09:31 10° SSW 17:13:59 79° W 17:18:30 10° N
Spot 1 4.4 17:10:06 10° NNE 17:14:50 73° ESE 17:19:48 10° S
COSMOS 2406 3.6 17:09:21 10° S 17:14:51 48° ESE 17:20:21 10° NE
NOSS 2-2 (C) 4.3 17:10:09 10° NW 17:15:02 60° NE 17:21:52 10° SE
USA 307 3.7 17:14:22 10° WNW 17:18:23 38° N 17:21:59 12° ENE
Cosmos 1606 4.0 17:16:49 10° SSW 17:20:24 42° WNW 17:24:03 10° N
CZ-2C R/B 3.0 17:17:00 10° S 17:21:53 80° WSW 17:26:40 10° NNW
Cosmos 1092 Rocket 4.0 17:16:02 10° N 17:22:23 66° ENE 17:28:39 10° SSE
Cosmos 1782 3.5 17:19:26 10° SSE 17:23:04 34° E 17:26:42 10° NNE
USA 267 3.4 17:16:41 10° ENE 17:23:13 69° SE 17:29:44 10° SW
CZ-2C R/B 3.7 17:22:43 10° NE 17:26:40 22° E 17:30:36 10° SE
Cosmos 1763 Rocket 3.4 17:22:48 10° SSW 17:27:52 90° ESE 17:33:02 10° NNE
Cosmos 1500 3.5 17:24:26 10° N 17:28:00 41° ENE 17:31:32 10° SSE
CZ-4C R/B 3.0 17:22:07 10° NW 17:28:59 59° NE 17:37:08 10° ESE
CZ-2D R/B 3.8 17:26:21 10° SE 17:29:52 36° ENE 17:33:24 10° N
Cosmos 1340 Rocket 3.8 17:28:45 10° NNW 17:32:43 51° W 17:36:40 10° S
H-2A R/B 2.3 17:28:21 10° SE 17:33:12 43° ENE 17:37:56 10° N
CZ-4B R/B 3.6 17:29:50 10° SE 17:34:44 37° ENE 17:39:35 10° N
Cosmos 841 Rocket 3.7 17:30:23 10° S 17:35:19 49° ESE 17:40:17 10° NNE
ATLAS CENTAUR R/B 3.8 17:33:00 10° WNW 17:35:40 15° NNW 17:38:26 10° NNE
PAYLOAD B 4.4 17:31:04 10° SE 17:36:29 53° ENE 17:41:55 10° N
SeaSat 1 4.4 17:34:25 10° N 17:38:15 23° NW 17:42:03 10° W
Cosmos 2360 4.5 17:33:00 10° NNW 17:38:46 75° WSW 17:44:27 10° SSE
Cosmos 1937 Rocket 3.6 17:34:20 10° NNW 17:39:41 85° WSW 17:45:00 10° SSE
USA 229 4.5 17:33:00 10° NW 17:40:14 64° WSW 17:47:55 10° SSE
USA 308 3.6 17:37:02 10° WNW 17:41:03 38° N 17:43:39 19° ENE
Lacrosse 5 rocket 1.8 17:38:44 10° NW 17:42:23 39° NNE 17:44:49 19° E
SMAP 3.1 17:38:02 10° SSE 17:42:41 87° WSW 17:47:23 10° NNW
Cosmos 1125 Rocket 4.5 17:39:44 10° N 17:44:05 25° NE 17:47:31 14° ESE
COSMO-SKYMED 1 3.6 17:41:39 16° NE 17:44:07 25° E 17:47:44 10° SSE
Cosmos 1627 Rocket 4.4 17:38:24 10° N 17:44:37 81° E 17:50:44 10° SSE
AQUARIUS 4.1 17:42:25 10° SSE 17:46:55 89° ENE 17:51:26 10° NNW
COSMOS 2455 2.9 17:41:29 10° SSW 17:47:24 62° ESE 17:52:28 15° NE
Meteor 2-21 4.4 17:41:23 10° N 17:47:30 77° E 17:53:33 10° SSE
Cosmos 372 Rocket 3.9 17:42:20 10° NNW 17:47:36 75° ENE 17:52:50 10° SSE
ATLAS 2AS CENTAUR R/B 4.2 17:42:59 10° WNW 17:49:07 25° N 17:54:01 13° NE
ISS -3.4 17:46:48 10° WNW 17:50:11 67° SSW 17:53:03 13° SE
Cosmos 2279 Rocket 4.2 17:44:26 10° SSE 17:50:18 46° E 17:56:11 10° NNE
Cosmos 1633 Rocket 3.4 17:46:21 10° N 17:50:30 41° ENE 17:54:39 10° SE
Cosmos 2360 Rocket 3.6 17:47:24 10° N 17:51:15 18° NE 17:52:12 18° NE
Cosmos 44 Rocket 3.6 17:47:42 10° NNW 17:52:26 43° NE 17:56:04 16° ESE
YAOGAN 1 4.2 17:56:50 17° NE 17:56:50 17° NE 17:58:32 10° NNE
SL-24 R/B - RUBIN 2 3.7 17:51:40 10° NW 17:56:14 77° SW 18:00:33 10° SSE
Meteor 1-11 Rocket 4.5 17:51:58 10° N 17:56:48 28° ENE 18:01:40 10° SE
NOAA 6 4.4 17:51:47 10° S 17:56:53 68° WSW 18:02:02 10° NNW
Cosmos 1666 2.8 17:53:41 10° N 17:57:19 48° ENE 18:00:55 10° SSE
USA 234 3.4 17:51:06 10° SE 17:57:40 78° SW 18:04:13 10° WNW
Meteor 1-26 Rocket 4.3 17:51:53 10° S 17:57:51 79° E 18:03:56 10° NNE
Cosmos 1151 Rocket 3.2 17:56:56 10° SSE 18:01:06 49° E 18:04:41 14° NNE
PSLV R/B 3.6 17:58:14 10° SSE 18:01:56 86° W 18:05:42 10° NNW
Cosmos 1933 4.2 18:02:53 10° SSW 18:06:50 51° WNW 18:10:47 10° N
USA 305 3.5 18:03:10 10° WNW 18:07:13 42° N 18:08:40 31° NE
Cosmos 1634 Rocket 4.0 18:02:15 10° S 18:08:37 87° WNW 18:14:59 10° N
Cosmos 2026 Rocket 4.3 18:05:08 10° NNW 18:11:14 69° W 18:17:14 10° S
Cosmos 2322 Rocket 2.9 18:07:20 10° NNW 18:12:26 32° NE 18:13:54 28° ENE
Cosmos 1697 Rocket 4.2 18:07:43 10° NW 18:12:54 38° WSW 18:18:02 10° S
Okean O Rocket 1.7 18:09:03 10° SSE 18:13:23 55° ENE 18:17:45 10° N
Landsat 5 4.0 18:16:56 35° ESE 18:16:56 35° ESE 18:20:26 10° SSE
Cosmos 1666 Rocket 3.5 18:12:52 10° N 18:17:21 89° WNW 18:21:45 10° S
Cosmos 1980 Rocket 2.6 18:12:18 10° NNW 18:17:56 66° WSW 18:23:30 10° SSE
Cosmos 540 Rocket 3.9 18:13:50 10° SW 18:18:51 59° WNW 18:23:37 12° NNE
Cosmos 1470 Rocket 3.7 18:16:18 10° N 18:20:39 49° ENE 18:25:00 10° SSE
Cosmos 1812 2.6 18:17:26 10° S 18:21:17 89° W 18:23:53 20° N
Cosmos 1328 Rocket 3.6 18:17:27 10° S 18:21:48 58° E 18:24:03 27° NNE
ERBS 4.2 18:20:08 10° NW 18:22:15 18° N 18:22:15 18° N
SJ-11-01 4.2 18:18:34 10° SSE 18:23:16 70° ENE 18:28:01 10° N
Meteor 1-5 Rocket 4.4 18:22:09 10° NNW 18:28:10 85° W 18:34:04 10° S
SL-16 R/B 2.3 18:25:32 10° NNW 18:31:05 52° NE 18:33:21 33° ESE
SKYMED 2 3.4 18:30:16 30° NNE 18:32:24 75° ESE 18:36:45 10° S
Cosmos 1570 Rocket 3.9 18:27:26 10° SSW 18:32:40 80° ESE 18:35:28 28° NNE
Cosmos 1814 Rocket 3.9 18:29:13 10° SSW 18:34:27 88° WNW 18:37:31 25° NNE
Cosmos 2298 Rocket 3.9 18:29:22 10° NNW 18:34:41 65° ENE 18:38:49 17° SE
Cosmos 1655 Rocket 4.0 18:28:28 10° N 18:34:51 65° ENE 18:41:10 10° SSE
Cosmos 2082 Rocket 2.3 18:29:16 10° SW 18:34:56 73° WNW 18:38:46 21° NNE
Meteor 2-8 Rocket 4.3 18:29:13 10° S 18:35:20 74° E 18:41:31 10° NNE
ATLAS CENTAUR R/B 2.7 18:28:10 10° WSW 18:36:21 58° NW 18:37:45 39° NNE
USA 306 3.2 18:35:24 10° WNW 18:39:33 50° NNE 18:39:34 50° NNE
Cosmos 2180 Rocket 4.4 18:35:00 10° S 18:41:21 83° E 18:47:38 10° N
Cosmos 2333 Rocket 3.7 18:39:42 10° N 18:42:44 21° NNE 18:42:44 21° NNE
Cosmos 2278 4.4 18:40:29 10° NW 18:46:04 56° WSW 18:51:35 10° S
Cosmos 1818 3.6 18:40:50 10° NW 18:46:20 83° SW 18:49:42 24° SSE
ARGOS 3.3 18:41:53 10° S 18:47:18 76° WSW 18:52:44 10° NNW
NOAA 15 4.5 18:45:08 10° SSE 18:50:22 67° ENE 18:55:37 10° N
MOS 1-B Rocket 4.3 18:45:18 10° N 18:51:08 68° WNW 18:57:46 10° SSW
deb Chang Zheng 4 4.4 18:49:58 10° S 18:54:09 50° W 18:58:23 10° NNW
Cosmos 1833 Rocket 4.3 18:50:16 10° WSW 18:55:09 30° NW 18:59:15 14° N
GEOS 3 Rocket 3.5 18:54:52 61° E 18:55:30 68° NE 19:00:40 10° NW
USA 307 3.5 18:54:36 10° WNW 18:58:01 47° NNW 18:58:01 47° NNW
Meteor 1-27 Rocket 4.2 18:57:54 10° S 19:01:42 42° SSE 19:01:42 42° SSE
Cosmos 2219 Rocket 3.9 19:00:11 10° N 19:02:19 18° N 19:02:19 18° N
Cosmos 1515 Rocket 4.1 19:00:50 10° S 19:04:04 48° S 19:04:04 48° S
USA 267 3.6 19:03:55 39° NE 19:06:10 56° NNW 19:12:30 10° W
SL-08 RB Rocket 4.0 19:01:46 10° S 19:06:23 67° WSW 19:11:00 10° NNW
CZ-2C R/B 3.1 19:03:18 16° N 19:07:22 58° WNW 19:12:25 10° SSW
Cosmos 2208 Rocket 4.3 19:02:46 10° SSW 19:08:09 68° WNW 19:10:00 41° N
Cosmos 2150 Rocket 4.2 19:06:25 10° NNW 19:11:35 70° WSW 19:13:51 34° S
H-2A R/B 4.0 19:08:21 10° SSW 19:12:46 28° W 19:17:07 10° NW
ATLAS CENTAUR R/B 4.2 19:15:21 10° NNW 19:15:31 10° N 19:15:31 10° N
CZ-4C R/B 3.9 19:10:43 10° NW 19:17:42 47° WSW 19:25:41 10° S
COSMO-SKYMED 1 3.9 19:18:52 28° NNW 19:20:22 37° WNW 19:24:22 10° SW
USA 308 4.3 19:17:09 10° WNW 19:19:40 34° NW 19:19:40 34° NW
Lacrosse 5 rocket 2.7 19:17:43 10° WNW 19:20:27 37° W 19:20:27 37° W
Cosmos 921 Rocket 4.2 19:19:23 10° SW 19:22:12 38° WSW 19:22:12 38° WSW
ISS -0.7 19:24:38 10° WSW 19:26:04 14° SW 19:26:04 14° SW
Cosmos 1125 Rocket 4.0 19:21:23 10° NNW 19:26:32 57° WSW 19:27:56 43° SSW
Cosmos 2237 4.5 19:23:36 10° NNW 19:28:11 59° NNW 19:28:11 59° NNW
COSMOS 2455 4.2 19:28:17 10° WSW 19:33:43 34° NW 19:35:38 28° N
Cosmos 2360 Rocket 3.2 19:30:36 10° NNW 19:33:59 37° NNW 19:33:59 37° NNW
NOSS 3-4 (A) 4.4 19:33:13 10° NW 19:38:11 40° N 19:38:11 40° N
NOSS 3-4 (C) 4.4 19:33:19 10° NW 19:38:16 40° N 19:38:16 40° N
ATLAS 5 CENTAUR R/B 3.9 19:37:15 10° NW 19:40:25 26° WNW 19:40:25 26° WNW
ATLAS 2AS CENTAUR R/B 3.9 19:35:56 10° NW 19:41:27 30° N 19:41:27 30° N
Okean O Rocket 4.3 19:46:58 10° SW 19:50:04 18° W 19:53:11 10° NW
Cosmos 2322 Rocket 3.1 19:51:13 10° NW 19:55:46 47° WNW 19:55:46 47° WNW
SL-16 R/B 3.8 20:10:05 10° NW 20:14:55 29° WSW 20:15:18 29° WSW
Cosmos 2082 Rocket 4.4 20:16:14 10° W 20:20:04 18° NW 20:20:38 18° NNW
Cosmos 2333 Rocket 4.5 20:23:27 10° NNW 20:24:46 17° NNW 20:24:46 17° NNW
